Time,TemperatureF,DewpointF,PressureIn,WindDirection,WindDirectionDegrees,WindSpeedMPH,WindSpeedGustMPH,Humidity,HourlyPrecipIn,Conditions,Clouds,dailyrainin,SoftwareType,DateUTC
2013-03-15 00:00:00,55.0,43.0,-100.00,East,80,2.0,-999.0,65,0.00,,,0.00,,2013-03-15 05:00:00,
2013-03-15 00:32:00,55.0,43.0,-100.00,East,80,2.0,-999.0,65,0.00,,,0.00,,2013-03-15 05:32:00,
2013-03-15 00:42:00,55.0,43.0,-100.00,East,80,2.0,-999.0,65,0.00,,,0.00,,2013-03-15 05:42:00,
2013-03-15 00:52:00,55.0,43.0,-100.00,East,80,2.0,-999.0,65,0.00,,,0.00,,2013-03-15 05:52:00,
2013-03-15 01:00:00,52.0,45.0,-100.00,NNE,24,2.0,-999.0,77,0.00,,,0.00,,2013-03-15 06:00:00,
2013-03-15 01:32:00,52.0,45.0,-100.00,NNE,24,2.0,-999.0,77,0.00,,,0.00,,2013-03-15 06:32:00,
2013-03-15 01:42:00,52.0,45.0,-100.00,NNE,24,2.0,-999.0,77,0.00,,,0.00,,2013-03-15 06:42:00,
2013-03-15 01:53:00,52.0,45.0,-100.00,NNE,24,2.0,-999.0,77,0.00,,,0.00,,2013-03-15 06:53:00,
2013-03-15 02:00:00,50.0,45.0,-100.00,NNE,16,2.0,-999.0,82,0.00,,,0.00,,2013-03-15 07:00:00,
2013-03-15 02:32:00,50.0,45.0,-100.00,NNE,16,2.0,-999.0,82,0.00,,,0.00,,2013-03-15 07:32:00,
2013-03-15 02:42:00,50.0,45.0,-100.00,NNE,16,2.0,-999.0,82,0.00,,,0.00,,2013-03-15 07:42:00,
2013-03-15 02:52:00,50.0,45.0,-100.00,NNE,16,2.0,-999.0,82,0.00,,,0.00,,2013-03-15 07:52:00,
2013-03-15 03:00:00,49.0,45.0,-100.00,North,11,3.0,-999.0,87,0.00,,,0.00,,2013-03-15 08:00:00,
2013-03-15 03:33:00,49.0,45.0,-100.00,North,11,3.0,-999.0,87,0.00,,,0.00,,2013-03-15 08:33:00,
2013-03-15 03:42:00,49.0,45.0,-100.00,North,11,3.0,-999.0,87,0.00,,,0.00,,2013-03-15 08:42:00,
2013-03-15 03:52:00,49.0,45.0,-100.00,North,11,3.0,-999.0,87,0.00,,,0.00,,2013-03-15 08:52:00,
2013-03-15 04:00:00,48.0,45.0,-100.00,North,7,2.0,-999.0,89,0.00,,,0.00,,2013-03-15 09:00:00,
2013-03-15 04:33:00,48.0,45.0,-100.00,North,7,2.0,-999.0,89,0.00,,,0.00,,2013-03-15 09:33:00,
2013-03-15 04:43:00,48.0,45.0,-100.00,North,7,2.0,-999.0,89,0.00,,,0.00,,2013-03-15 09:43:00,
2013-03-15 04:53:00,48.0,45.0,-100.00,North,7,2.0,-999.0,89,0.00,,,0.00,,2013-03-15 09:53:00,
2013-03-15 05:00:00,47.0,45.0,-100.00,North,4,3.0,-999.0,92,0.00,,,0.00,,2013-03-15 10:00:00,
2013-03-15 05:33:00,47.0,45.0,-100.00,North,4,3.0,-999.0,92,0.00,,,0.00,,2013-03-15 10:33:00,
2013-03-15 05:43:00,47.0,45.0,-100.00,North,4,3.0,-999.0,92,0.00,,,0.00,,2013-03-15 10:43:00,
2013-03-15 05:52:00,47.0,45.0,-100.00,North,4,3.0,-999.0,92,0.00,,,0.00,,2013-03-15 10:52:00,
2013-03-15 06:00:00,45.0,43.0,-100.00,SSW,192,2.0,-999.0,93,0.00,,,0.00,,2013-03-15 11:00:00,
2013-03-15 06:32:00,45.0,43.0,-100.00,SSW,192,2.0,-999.0,93,0.00,,,0.00,,2013-03-15 11:32:00,
2013-03-15 06:42:00,45.0,43.0,-100.00,SSW,192,2.0,-999.0,93,0.00,,,0.00,,2013-03-15 11:42:00,
2013-03-15 06:52:00,45.0,43.0,-100.00,SSW,192,2.0,-999.0,93,0.00,,,0.00,,2013-03-15 11:52:00,
2013-03-15 07:00:00,41.0,39.0,-100.00,South,173,4.0,-999.0,95,0.00,,,0.00,,2013-03-15 12:00:00,
2013-03-15 07:32:00,41.0,39.0,-100.00,South,173,4.0,-999.0,95,0.00,,,0.00,,2013-03-15 12:32:00,
2013-03-15 07:42:00,41.0,39.0,-100.00,South,173,4.0,-999.0,95,0.00,,,0.00,,2013-03-15 12:42:00,
2013-03-15 07:52:00,41.0,39.0,-100.00,South,173,4.0,-999.0,95,0.00,,,0.00,,2013-03-15 12:52:00,
2013-03-15 08:00:00,47.0,44.0,-100.00,SE,135,1.0,-999.0,91,0.00,,,0.00,,2013-03-15 13:00:00,
2013-03-15 08:32:00,47.0,44.0,-100.00,SE,135,1.0,-999.0,91,0.00,,,0.00,,2013-03-15 13:32:00,
2013-03-15 08:42:00,47.0,44.0,-100.00,SE,135,1.0,-999.0,91,0.00,,,0.00,,2013-03-15 13:42:00,
2013-03-15 08:52:00,47.0,44.0,-100.00,SE,135,1.0,-999.0,91,0.00,,,0.00,,2013-03-15 13:52:00,
2013-03-15 09:00:00,51.0,47.0,-100.00,NE,49,0.0,-999.0,88,0.00,,,0.00,,2013-03-15 14:00:00,
2013-03-15 09:32:00,51.0,47.0,-100.00,NE,49,0.0,-999.0,88,0.00,,,0.00,,2013-03-15 14:32:00,
2013-03-15 09:42:00,51.0,47.0,-100.00,NE,49,0.0,-999.0,88,0.00,,,0.00,,2013-03-15 14:42:00,
2013-03-15 09:53:00,51.0,47.0,-100.00,NE,49,0.0,-999.0,88,0.00,,,0.00,,2013-03-15 14:53:00,
2013-03-15 10:00:00,58.0,50.0,-100.00,SSE,160,4.0,-999.0,76,0.00,,,0.00,,2013-03-15 15:00:00,
2013-03-15 10:33:00,58.0,50.0,-100.00,SSE,160,4.0,-999.0,76,0.00,,,0.00,,2013-03-15 15:33:00,
2013-03-15 10:43:00,58.0,50.0,-100.00,SSE,160,4.0,-999.0,76,0.00,,,0.00,,2013-03-15 15:43:00,
2013-03-15 10:53:00,58.0,50.0,-100.00,SSE,160,4.0,-999.0,76,0.00,,,0.00,,2013-03-15 15:53:00,
2013-03-15 11:00:00,65.0,53.0,-100.00,SSW,208,12.0,-999.0,65,0.00,,,0.00,,2013-03-15 16:00:00,
2013-03-15 11:32:00,65.0,53.0,-100.00,SSW,208,12.0,-999.0,65,0.00,,,0.00,,2013-03-15 16:32:00,
2013-03-15 11:42:00,65.0,53.0,-100.00,SSW,208,12.0,-999.0,65,0.00,,,0.00,,2013-03-15 16:42:00,
2013-03-15 11:52:00,65.0,53.0,-100.00,SSW,208,12.0,-999.0,65,0.00,,,0.00,,2013-03-15 16:52:00,
2013-03-15 12:00:00,69.0,53.0,-100.00,SSW,207,14.0,-999.0,56,0.00,,,0.00,,2013-03-15 17:00:00,
2013-03-15 12:32:00,69.0,53.0,-100.00,SSW,207,14.0,-999.0,56,0.00,,,0.00,,2013-03-15 17:32:00,
2013-03-15 12:43:00,69.0,53.0,-100.00,SSW,207,14.0,-999.0,56,0.00,,,0.00,,2013-03-15 17:43:00,
2013-03-15 12:53:00,69.0,53.0,-100.00,SSW,207,14.0,-999.0,56,0.00,,,0.00,,2013-03-15 17:53:00,
2013-03-15 13:00:00,73.0,52.0,-100.00,SW,218,12.0,-999.0,47,0.00,,,0.00,,2013-03-15 18:00:00,
2013-03-15 13:32:00,73.0,52.0,-100.00,SW,218,12.0,-999.0,47,0.00,,,0.00,,2013-03-15 18:32:00,
2013-03-15 13:42:00,73.0,52.0,-100.00,SW,218,12.0,-999.0,47,0.00,,,0.00,,2013-03-15 18:42:00,
2013-03-15 13:52:00,73.0,52.0,-100.00,SW,218,12.0,-999.0,47,0.00,,,0.00,,2013-03-15 18:52:00,
2013-03-15 14:00:00,76.0,49.0,-100.00,SSW,212,16.0,-999.0,39,0.00,,,0.00,,2013-03-15 19:00:00,
2013-03-15 14:32:00,76.0,49.0,-100.00,SSW,212,16.0,-999.0,39,0.00,,,0.00,,2013-03-15 19:32:00,
2013-03-15 14:42:00,76.0,49.0,-100.00,SSW,212,16.0,-999.0,39,0.00,,,0.00,,2013-03-15 19:42:00,
2013-03-15 14:52:00,76.0,49.0,-100.00,SSW,212,16.0,-999.0,39,0.00,,,0.00,,2013-03-15 19:52:00,
2013-03-15 15:00:00,77.0,50.0,-100.00,SSW,201,16.0,-999.0,39,0.00,,,0.00,,2013-03-15 20:00:00,
2013-03-15 15:42:00,77.0,50.0,-100.00,SSW,201,16.0,-999.0,39,0.00,,,0.00,,2013-03-15 20:42:00,
2013-03-15 15:52:00,77.0,50.0,-100.00,SSW,201,16.0,-999.0,39,0.00,,,0.00,,2013-03-15 20:52:00,
2013-03-15 16:00:00,78.0,48.0,-100.00,South,190,16.0,-999.0,35,0.00,,,0.00,,2013-03-15 21:00:00,
2013-03-15 16:33:00,78.0,48.0,-100.00,South,190,16.0,-999.0,35,0.00,,,0.00,,2013-03-15 21:33:00,
2013-03-15 16:43:00,78.0,48.0,-100.00,South,190,16.0,-999.0,35,0.00,,,0.00,,2013-03-15 21:43:00,
2013-03-15 16:53:00,78.0,48.0,-100.00,South,190,16.0,-999.0,35,0.00,,,0.00,,2013-03-15 21:53:00,
2013-03-15 17:00:00,79.0,49.0,-100.00,SSW,212,14.0,-999.0,35,0.00,,,0.00,,2013-03-15 22:00:00,
2013-03-15 17:32:00,79.0,49.0,-100.00,SSW,212,14.0,-999.0,35,0.00,,,0.00,,2013-03-15 22:32:00,
2013-03-15 17:42:00,79.0,49.0,-100.00,SSW,212,14.0,-999.0,35,0.00,,,0.00,,2013-03-15 22:42:00,
2013-03-15 17:52:00,79.0,49.0,-100.00,SSW,212,14.0,-999.0,35,0.00,,,0.00,,2013-03-15 22:52:00,
2013-03-15 18:00:00,77.0,45.0,-100.00,SSW,194,15.0,-999.0,32,0.00,,,0.00,,2013-03-15 23:00:00,
2013-03-15 18:32:00,77.0,45.0,-100.00,SSW,194,15.0,-999.0,32,0.00,,,0.00,,2013-03-15 23:32:00,
2013-03-15 18:42:00,77.0,45.0,-100.00,SSW,194,15.0,-999.0,32,0.00,,,0.00,,2013-03-15 23:42:00,
2013-03-15 18:53:00,77.0,45.0,-100.00,SSW,194,15.0,-999.0,32,0.00,,,0.00,,2013-03-15 23:53:00,
2013-03-15 19:00:00,75.0,44.0,-100.00,SSW,199,12.0,-999.0,33,0.00,,,0.00,,2013-03-16 00:00:00,
2013-03-15 19:32:00,75.0,44.0,-100.00,SSW,199,12.0,-999.0,33,0.00,,,0.00,,2013-03-16 00:32:00,
2013-03-15 19:42:00,75.0,44.0,-100.00,SSW,199,12.0,-999.0,33,0.00,,,0.00,,2013-03-16 00:42:00,
2013-03-15 19:52:00,75.0,44.0,-100.00,SSW,199,12.0,-999.0,33,0.00,,,0.00,,2013-03-16 00:52:00,
2013-03-15 20:00:00,72.0,43.0,-100.00,South,184,8.0,-999.0,36,0.00,,,0.00,,2013-03-16 01:00:00,
2013-03-15 20:32:00,72.0,43.0,-100.00,South,184,8.0,-999.0,36,0.00,,,0.00,,2013-03-16 01:32:00,
2013-03-15 20:42:00,72.0,43.0,-100.00,South,184,8.0,-999.0,36,0.00,,,0.00,,2013-03-16 01:42:00,
2013-03-15 20:53:00,72.0,43.0,-100.00,South,184,8.0,-999.0,36,0.00,,,0.00,,2013-03-16 01:53:00,
2013-03-15 21:00:00,70.0,41.0,-100.00,South,188,5.0,-999.0,35,0.00,,,0.00,,2013-03-16 02:00:00,
2013-03-15 21:32:00,70.0,41.0,-100.00,South,188,5.0,-999.0,35,0.00,,,0.00,,2013-03-16 02:32:00,
2013-03-15 21:43:00,70.0,41.0,-100.00,South,188,5.0,-999.0,35,0.00,,,0.00,,2013-03-16 02:43:00,
2013-03-15 21:52:00,70.0,41.0,-100.00,South,188,5.0,-999.0,35,0.00,,,0.00,,2013-03-16 02:52:00,
2013-03-15 22:00:00,66.0,41.0,-100.00,SSE,150,3.0,-999.0,40,0.00,,,0.00,,2013-03-16 03:00:00,
2013-03-15 22:32:00,66.0,41.0,-100.00,SSE,150,3.0,-999.0,40,0.00,,,0.00,,2013-03-16 03:32:00,
2013-03-15 22:43:00,66.0,41.0,-100.00,SSE,150,3.0,-999.0,40,0.00,,,0.00,,2013-03-16 03:43:00,
2013-03-15 22:53:00,66.0,41.0,-100.00,SSE,150,3.0,-999.0,40,0.00,,,0.00,,2013-03-16 03:53:00,
2013-03-15 23:00:00,60.0,42.0,-100.00,SSE,160,5.0,-999.0,52,0.00,,,0.00,,2013-03-16 04:00:00,
2013-03-15 23:33:00,60.0,42.0,-100.00,SSE,160,5.0,-999.0,52,0.00,,,0.00,,2013-03-16 04:33:00,
2013-03-15 23:43:00,60.0,42.0,-100.00,SSE,160,5.0,-999.0,52,0.00,,,0.00,,2013-03-16 04:43:00,
2013-03-15 23:53:00,60.0,42.0,-100.00,SSE,160,5.0,-999.0,52,0.00,,,0.00,,2013-03-16 04:53:00,